Endeavour — C6BE4 — position and weather

sailwx.info

Track history (hours):
 
Tides and Currents Weather Stations Pressure Air Temp Water Temp Dewpoint Dewpoint Depression Visibility Wind Speed Wind Dir Waves Ship Positions

Endeavour

Operator: Lindblad Expeditions

Last reported at 2017-Mar-30 13:33 UTC. Time now 2017-Mar-30 14:31 UTC.
Position S 33°47' E 017°50'.

Length 190 m; draft 9.8 m.

Type: Cargo ship. MMSI: 311000239.

Date/timePositionNaut miles runAvg speedWind from/ knotsBaromVisibWave heightAir tempDewpointWater temp
2017-Mar-30 13:33S 33°47' E 017°50'1212.4
2017-Mar-30 12:33S 33°58' E 017°54'7311.7
2017-Mar-30 06:19S 34°52' E 018°53'  
2017-Mar-28 02:04S 30°54' E 030°56'713.2
2017-Mar-28 01:34S 30°47' E 030°59'1313.0
2017-Mar-28 00:33S 30°35' E 031°05'1312.6
2017-Mar-27 23:33S 30°24' E 031°11'1212.0
2017-Mar-27 22:33S 30°13' E 031°16'1212.5
2017-Mar-27 21:33S 30°01' E 031°22'9 9.5
2017-Mar-27 20:33S 29°53' E 031°18'1212.3
2017-Mar-27 19:33S 29°51' E 031°04'2 2.3
2017-Mar-27 18:33S 29°52' E 031°02'0 0.0
2017-Mar-27 17:33S 29°52' E 031°02'0 0.0
2017-Mar-27 16:33S 29°52' E 031°02'0 0.0
2017-Mar-27 15:33S 29°52' E 031°02'0 0.0
2017-Mar-27 14:33S 29°52' E 031°02'0 0.0
2017-Mar-27 13:33S 29°52' E 031°02'0 0.0
2017-Mar-27 12:30S 29°52' E 031°02'0 0.0
2017-Mar-27 11:30S 29°52' E 031°02'0 0.0
2017-Mar-27 10:33S 29°52' E 031°02'0 0.0
2017-Mar-27 09:33S 29°52' E 031°02'0 0.0
2017-Mar-27 08:33S 29°52' E 031°02'0 0.0
2017-Mar-27 07:33S 29°52' E 031°02'0 0.0
2017-Mar-27 06:33S 29°52' E 031°02'0 0.0
2017-Mar-27 05:33S 29°52' E 031°02'0 0.0
2017-Mar-27 04:33S 29°52' E 031°02'0 0.0
2017-Mar-27 03:33S 29°52' E 031°02'0 0.0
2017-Mar-27 02:30S 29°52' E 031°02'0 0.0
2017-Mar-27 01:33S 29°52' E 031°02'3 3.3
2017-Mar-27 00:33S 29°50' E 031°05'4 3.6
2017-Mar-26 23:33S 29°50' E 031°09'1 1.1
2017-Mar-26 22:33S 29°49' E 031°09'1 1.0
2017-Mar-26 21:33S 29°48' E 031°08'0 0.4
2017-Mar-26 20:33S 29°49' E 031°08'1 1.4
2017-Mar-26 19:33S 29°49' E 031°10'6 6.3
2017-Mar-26 18:33S 29°47' E 031°17'1010.2
2017-Mar-26 17:33S 29°44' E 031°28'1212.4
2017-Mar-26 16:33S 29°39' E 031°41'1413.6
2017-Mar-26 15:33S 29°28' E 031°50'1312.8
2017-Mar-26 14:33S 29°17' E 031°58'1412.9
2017-Mar-26 13:30S 29°05' E 032°06'1212.8
2017-Mar-26 12:33S 28°54' E 032°12'1110.6
2017-Mar-26 11:33S 28°48' E 032°02'0 0.3
2017-Mar-26 10:31S 28°48' E 032°02'0 0.0
2017-Mar-26 09:31S 28°48' E 032°02'0 0.0
2017-Mar-26 08:31S 28°48' E 032°02'0 0.0
2017-Mar-26 07:31S 28°48' E 032°02'0 0.0
2017-Mar-26 06:32S 28°48' E 032°02'0 0.0
2017-Mar-26 05:31S 28°48' E 032°02'0 0.0
2017-Mar-26 04:31S 28°48' E 032°02'0 0.0
2017-Mar-26 03:31S 28°48' E 032°02'0 0.0
2017-Mar-26 02:31S 28°48' E 032°02'0 0.0
2017-Mar-26 01:31S 28°48' E 032°02'0 0.0
2017-Mar-26 00:31S 28°48' E 032°02'0 0.0
2017-Mar-25 23:31S 28°48' E 032°02'0 0.0
2017-Mar-25 22:31S 28°48' E 032°02'0 0.0
2017-Mar-25 21:32S 28°48' E 032°02'0 0.0
2017-Mar-25 20:31S 28°48' E 032°02'0 0.0
2017-Mar-25 19:31S 28°48' E 032°02'0 0.0
2017-Mar-25 18:32S 28°48' E 032°02'0 0.0
2017-Mar-25 17:31S 28°48' E 032°02'0 0.0
2017-Mar-25 16:31S 28°48' E 032°02'0 0.0
2017-Mar-25 15:31S 28°48' E 032°02'0 0.0
2017-Mar-25 14:31S 28°48' E 032°02'0 0.0
2017-Mar-25 13:31S 28°48' E 032°02'0 0.0
2017-Mar-25 12:31S 28°48' E 032°02'0 0.0
2017-Mar-25 11:25S 28°48' E 032°02'0 0.0
2017-Mar-25 10:31S 28°48' E 032°02'0 0.0
2017-Mar-25 09:31S 28°48' E 032°02'0 0.0
2017-Mar-25 08:31S 28°48' E 032°02'0 0.0
2017-Mar-25 07:31S 28°48' E 032°02'0 0.0
2017-Mar-25 06:31S 28°48' E 032°02'0 0.0
2017-Mar-25 05:31S 28°48' E 032°02'0 0.0
2017-Mar-25 04:32S 28°48' E 032°02'0 0.0
2017-Mar-25 03:31S 28°48' E 032°02'0 0.0
2017-Mar-25 02:31S 28°48' E 032°02'0 0.0
2017-Mar-25 01:31S 28°48' E 032°02'0 0.0
2017-Mar-25 00:31S 28°48' E 032°02'0 0.0
2017-Mar-24 23:31S 28°48' E 032°02'0 0.0
2017-Mar-24 22:31S 28°48' E 032°02'0 0.0
2017-Mar-24 21:31S 28°48' E 032°02'0 0.0
2017-Mar-24 20:31S 28°48' E 032°02'0 0.0
2017-Mar-24 19:31S 28°48' E 032°02'0 0.0
2017-Mar-24 18:31S 28°48' E 032°02'0 0.0
2017-Mar-24 17:31S 28°48' E 032°02'0 0.0
2017-Mar-24 16:31S 28°48' E 032°02'0 0.0
2017-Mar-24 15:31S 28°48' E 032°02'0 0.0
2017-Mar-24 14:28S 28°48' E 032°02'0 0.0
2017-Mar-24 13:31S 28°48' E 032°02'0 0.0
2017-Mar-24 12:31S 28°48' E 032°02'0 0.0
2017-Mar-24 11:31S 28°48' E 032°02'0 0.0
2017-Mar-24 10:31S 28°48' E 032°02'0 0.0
2017-Mar-24 09:31S 28°48' E 032°02'0 0.0
2017-Mar-24 08:31S 28°48' E 032°02'0 0.0
2017-Mar-24 07:31S 28°48' E 032°02'0 0.0
2017-Mar-24 06:31S 28°48' E 032°02'0 0.0
2017-Mar-24 05:31S 28°48' E 032°02'0 0.0
2017-Mar-24 04:31S 28°48' E 032°02'0 0.0
2017-Mar-24 03:31S 28°48' E 032°02'0 0.0
2017-Mar-24 02:31S 28°48' E 032°02'0 0.0
2017-Mar-24 01:32S 28°48' E 032°02'0 0.0
2017-Mar-24 00:31S 28°48' E 032°02'0 0.0
2017-Mar-23 23:31S 28°48' E 032°02'0 0.0
2017-Mar-23 22:31S 28°48' E 032°02'0 0.0
2017-Mar-23 21:32S 28°48' E 032°02'0 0.0
2017-Mar-23 20:31S 28°48' E 032°02'0 0.0
2017-Mar-23 19:31S 28°48' E 032°02'0 0.0
2017-Mar-23 18:31S 28°48' E 032°02'0 0.0
2017-Mar-23 17:31S 28°48' E 032°02'0 0.0
2017-Mar-23 16:31S 28°48' E 032°02'0 0.0
2017-Mar-23 15:31S 28°48' E 032°02'0 0.0
2017-Mar-23 14:31S 28°48' E 032°02'0 0.0
2017-Mar-23 13:31S 28°48' E 032°02'0 0.0
2017-Mar-23 12:31S 28°48' E 032°02'0 0.0
2017-Mar-23 11:31S 28°48' E 032°02'0 0.0
2017-Mar-23 10:31S 28°48' E 032°02'0 0.0
2017-Mar-23 09:31S 28°48' E 032°02'0 0.0
2017-Mar-23 08:31S 28°48' E 032°02'0 0.0
2017-Mar-23 07:31S 28°48' E 032°02'0 0.0
2017-Mar-23 06:32S 28°48' E 032°02'0 0.0
2017-Mar-23 05:31S 28°48' E 032°02'0 0.0
2017-Mar-23 04:31S 28°48' E 032°02'0 0.0
2017-Mar-23 03:31S 28°48' E 032°02'0 0.0
2017-Mar-23 02:32S 28°48' E 032°02'0 0.0
2017-Mar-23 01:31S 28°48' E 032°02'0 0.0
2017-Mar-23 00:31S 28°48' E 032°02'0 0.0
2017-Mar-22 23:31S 28°48' E 032°02'0 0.0
2017-Mar-22 22:31S 28°48' E 032°02'0 0.0
2017-Mar-22 21:31S 28°48' E 032°02'0 0.0
2017-Mar-22 20:31S 28°48' E 032°02'0 0.0
2017-Mar-22 19:31S 28°48' E 032°02'0 0.0
2017-Mar-22 18:31S 28°48' E 032°02'0 0.0
2017-Mar-22 17:31S 28°48' E 032°02'0 0.0
2017-Mar-22 16:32S 28°48' E 032°02'0 0.0
2017-Mar-22 15:31S 28°48' E 032°02'0 0.0
2017-Mar-22 14:31S 28°48' E 032°02'0 0.0
2017-Mar-22 13:31S 28°48' E 032°02'0 0.0
2017-Mar-22 12:31S 28°48' E 032°02'0 0.0
2017-Mar-22 11:31S 28°48' E 032°02'0 0.0
2017-Mar-22 10:31S 28°48' E 032°02'0 0.0
2017-Mar-22 09:31S 28°48' E 032°02'0 0.0
2017-Mar-22 08:31S 28°48' E 032°02'0 0.0
2017-Mar-22 07:31S 28°48' E 032°02'0 0.0
2017-Mar-22 06:28S 28°48' E 032°02'0 0.0
2017-Mar-22 05:31S 28°48' E 032°02'0 0.0
2017-Mar-22 04:31S 28°48' E 032°02'0 0.0
2017-Mar-22 03:31S 28°48' E 032°02'0 0.0
2017-Mar-22 02:31S 28°48' E 032°02'0 0.0
2017-Mar-22 01:31S 28°48' E 032°02'0 0.0
2017-Mar-22 00:31S 28°48' E 032°02'0 0.0
2017-Mar-21 23:31S 28°48' E 032°02'0 0.0
2017-Mar-21 22:31S 28°48' E 032°02'0 0.0
2017-Mar-21 21:31S 28°48' E 032°02'0 0.0
2017-Mar-21 20:31S 28°48' E 032°02'0 0.0
2017-Mar-21 19:31S 28°48' E 032°02'0 0.0
2017-Mar-21 18:31S 28°48' E 032°02'0 0.0
2017-Mar-21 17:31S 28°48' E 032°02'0 0.0
2017-Mar-21 16:31S 28°48' E 032°02'0 0.0
2017-Mar-21 15:32S 28°48' E 032°02'0 0.0
2017-Mar-21 14:31S 28°48' E 032°02'0 0.0
2017-Mar-21 13:31S 28°48' E 032°02'0 0.0
2017-Mar-21 12:31S 28°48' E 032°02'0 0.0
2017-Mar-21 11:31S 28°48' E 032°02'0 0.0
2017-Mar-21 10:31S 28°48' E 032°02'0 0.0
2017-Mar-21 09:31S 28°48' E 032°02'0 0.0
2017-Mar-21 08:31S 28°48' E 032°02'0 0.0
2017-Mar-21 07:31S 28°48' E 032°02'0 0.0
2017-Mar-21 06:31S 28°48' E 032°02'0 0.0
2017-Mar-21 05:31S 28°48' E 032°02'0 0.0
2017-Mar-21 04:25S 28°48' E 032°02'0 0.0
2017-Mar-21 03:31S 28°48' E 032°02'0 0.0
2017-Mar-21 02:31S 28°48' E 032°02'0 0.0
2017-Mar-21 01:31S 28°48' E 032°02'0 0.0
2017-Mar-21 00:31S 28°48' E 032°02'0 0.0
2017-Mar-20 23:31S 28°48' E 032°02'0 0.0
2017-Mar-20 22:31S 28°48' E 032°02'0 0.0
2017-Mar-20 21:31S 28°48' E 032°02'1 0.9
2017-Mar-20 20:33S 28°48' E 032°03'6 5.8
2017-Mar-20 19:33S 28°50' E 032°09'5 4.4
2017-Mar-20 18:31S 28°53' E 032°13'0 0.0
2017-Mar-20 17:31S 28°53' E 032°13'0 0.0
2017-Mar-20 16:31S 28°53' E 032°13'0 0.0
2017-Mar-20 15:31S 28°53' E 032°13'0 0.1
2017-Mar-20 14:31S 28°53' E 032°13'0 0.1
2017-Mar-20 13:34S 28°53' E 032°13'  
Track history (hours):
 
Tides and Currents Weather Stations Pressure Air Temp Water Temp Dewpoint Dewpoint Depression Visibility Wind Speed Wind Dir Waves Ship Positions

Endeavour

Operator: Lindblad Expeditions

Last reported at 2017-Mar-30 13:33 UTC. Time now 2017-Mar-30 14:31 UTC.
Position S 33°47' E 017°50'.

Length 190 m; draft 9.8 m.

Type: Cargo ship. MMSI: 311000239.

Date/timePositionNaut miles runAvg speedWind from/ knotsBaromVisibWave heightAir tempDewpointWater temp
2017-Mar-30 13:33S 33°47' E 017°50'1212.4
2017-Mar-30 12:33S 33°58' E 017°54'7311.7
2017-Mar-30 06:19S 34°52' E 018°53'  
2017-Mar-28 02:04S 30°54' E 030°56'713.2
2017-Mar-28 01:34S 30°47' E 030°59'1313.0
2017-Mar-28 00:33S 30°35' E 031°05'1312.6
2017-Mar-27 23:33S 30°24' E 031°11'1212.0
2017-Mar-27 22:33S 30°13' E 031°16'1212.5
2017-Mar-27 21:33S 30°01' E 031°22'9 9.5
2017-Mar-27 20:33S 29°53' E 031°18'1212.3
2017-Mar-27 19:33S 29°51' E 031°04'2 2.3
2017-Mar-27 18:33S 29°52' E 031°02'0 0.0
2017-Mar-27 17:33S 29°52' E 031°02'0 0.0
2017-Mar-27 16:33S 29°52' E 031°02'0 0.0
2017-Mar-27 15:33S 29°52' E 031°02'0 0.0
2017-Mar-27 14:33S 29°52' E 031°02'0 0.0
2017-Mar-27 13:33S 29°52' E 031°02'0 0.0
2017-Mar-27 12:30S 29°52' E 031°02'0 0.0
2017-Mar-27 11:30S 29°52' E 031°02'0 0.0
2017-Mar-27 10:33S 29°52' E 031°02'0 0.0
2017-Mar-27 09:33S 29°52' E 031°02'0 0.0
2017-Mar-27 08:33S 29°52' E 031°02'0 0.0
2017-Mar-27 07:33S 29°52' E 031°02'0 0.0
2017-Mar-27 06:33S 29°52' E 031°02'0 0.0
2017-Mar-27 05:33S 29°52' E 031°02'0 0.0
2017-Mar-27 04:33S 29°52' E 031°02'0 0.0
2017-Mar-27 03:33S 29°52' E 031°02'0 0.0
2017-Mar-27 02:30S 29°52' E 031°02'0 0.0
2017-Mar-27 01:33S 29°52' E 031°02'3 3.3
2017-Mar-27 00:33S 29°50' E 031°05'4 3.6
2017-Mar-26 23:33S 29°50' E 031°09'1 1.1
2017-Mar-26 22:33S 29°49' E 031°09'1 1.0
2017-Mar-26 21:33S 29°48' E 031°08'0 0.4
2017-Mar-26 20:33S 29°49' E 031°08'1 1.4
2017-Mar-26 19:33S 29°49' E 031°10'6 6.3
2017-Mar-26 18:33S 29°47' E 031°17'1010.2
2017-Mar-26 17:33S 29°44' E 031°28'1212.4
2017-Mar-26 16:33S 29°39' E 031°41'1413.6
2017-Mar-26 15:33S 29°28' E 031°50'1312.8
2017-Mar-26 14:33S 29°17' E 031°58'1412.9
2017-Mar-26 13:30S 29°05' E 032°06'1212.8
2017-Mar-26 12:33S 28°54' E 032°12'1110.6
2017-Mar-26 11:33S 28°48' E 032°02'0 0.3
2017-Mar-26 10:31S 28°48' E 032°02'0 0.0
2017-Mar-26 09:31S 28°48' E 032°02'0 0.0
2017-Mar-26 08:31S 28°48' E 032°02'0 0.0
2017-Mar-26 07:31S 28°48' E 032°02'0 0.0
2017-Mar-26 06:32S 28°48' E 032°02'0 0.0
2017-Mar-26 05:31S 28°48' E 032°02'0 0.0
2017-Mar-26 04:31S 28°48' E 032°02'0 0.0
2017-Mar-26 03:31S 28°48' E 032°02'0 0.0
2017-Mar-26 02:31S 28°48' E 032°02'0 0.0
2017-Mar-26 01:31S 28°48' E 032°02'0 0.0
2017-Mar-26 00:31S 28°48' E 032°02'0 0.0
2017-Mar-25 23:31S 28°48' E 032°02'0 0.0
2017-Mar-25 22:31S 28°48' E 032°02'0 0.0
2017-Mar-25 21:32S 28°48' E 032°02'0 0.0
2017-Mar-25 20:31S 28°48' E 032°02'0 0.0
2017-Mar-25 19:31S 28°48' E 032°02'0 0.0
2017-Mar-25 18:32S 28°48' E 032°02'0 0.0
2017-Mar-25 17:31S 28°48' E 032°02'0 0.0
2017-Mar-25 16:31S 28°48' E 032°02'0 0.0
2017-Mar-25 15:31S 28°48' E 032°02'0 0.0
2017-Mar-25 14:31S 28°48' E 032°02'0 0.0
2017-Mar-25 13:31S 28°48' E 032°02'0 0.0
2017-Mar-25 12:31S 28°48' E 032°02'0 0.0
2017-Mar-25 11:25S 28°48' E 032°02'0 0.0
2017-Mar-25 10:31S 28°48' E 032°02'0 0.0
2017-Mar-25 09:31S 28°48' E 032°02'0 0.0
2017-Mar-25 08:31S 28°48' E 032°02'0 0.0
2017-Mar-25 07:31S 28°48' E 032°02'0 0.0
2017-Mar-25 06:31S 28°48' E 032°02'0 0.0
2017-Mar-25 05:31S 28°48' E 032°02'0 0.0
2017-Mar-25 04:32S 28°48' E 032°02'0 0.0
2017-Mar-25 03:31S 28°48' E 032°02'0 0.0
2017-Mar-25 02:31S 28°48' E 032°02'0 0.0
2017-Mar-25 01:31S 28°48' E 032°02'0 0.0
2017-Mar-25 00:31S 28°48' E 032°02'0 0.0
2017-Mar-24 23:31S 28°48' E 032°02'0 0.0
2017-Mar-24 22:31S 28°48' E 032°02'0 0.0
2017-Mar-24 21:31S 28°48' E 032°02'0 0.0
2017-Mar-24 20:31S 28°48' E 032°02'0 0.0
2017-Mar-24 19:31S 28°48' E 032°02'0 0.0
2017-Mar-24 18:31S 28°48' E 032°02'0 0.0
2017-Mar-24 17:31S 28°48' E 032°02'0 0.0
2017-Mar-24 16:31S 28°48' E 032°02'0 0.0
2017-Mar-24 15:31S 28°48' E 032°02'0 0.0
2017-Mar-24 14:28S 28°48' E 032°02'0 0.0
2017-Mar-24 13:31S 28°48' E 032°02'0 0.0
2017-Mar-24 12:31S 28°48' E 032°02'0 0.0
2017-Mar-24 11:31S 28°48' E 032°02'0 0.0
2017-Mar-24 10:31S 28°48' E 032°02'0 0.0
2017-Mar-24 09:31S 28°48' E 032°02'0 0.0
2017-Mar-24 08:31S 28°48' E 032°02'0 0.0
2017-Mar-24 07:31S 28°48' E 032°02'0 0.0
2017-Mar-24 06:31S 28°48' E 032°02'0 0.0
2017-Mar-24 05:31S 28°48' E 032°02'0 0.0
2017-Mar-24 04:31S 28°48' E 032°02'0 0.0
2017-Mar-24 03:31S 28°48' E 032°02'0 0.0
2017-Mar-24 02:31S 28°48' E 032°02'0 0.0
2017-Mar-24 01:32S 28°48' E 032°02'0 0.0
2017-Mar-24 00:31S 28°48' E 032°02'0 0.0
2017-Mar-23 23:31S 28°48' E 032°02'0 0.0
2017-Mar-23 22:31S 28°48' E 032°02'0 0.0
2017-Mar-23 21:32S 28°48' E 032°02'0 0.0
2017-Mar-23 20:31S 28°48' E 032°02'0 0.0
2017-Mar-23 19:31S 28°48' E 032°02'0 0.0
2017-Mar-23 18:31S 28°48' E 032°02'0 0.0
2017-Mar-23 17:31S 28°48' E 032°02'0 0.0
2017-Mar-23 16:31S 28°48' E 032°02'0 0.0
2017-Mar-23 15:31S 28°48' E 032°02'0 0.0
2017-Mar-23 14:31S 28°48' E 032°02'0 0.0
2017-Mar-23 13:31S 28°48' E 032°02'0 0.0
2017-Mar-23 12:31S 28°48' E 032°02'0 0.0
2017-Mar-23 11:31S 28°48' E 032°02'0 0.0
2017-Mar-23 10:31S 28°48' E 032°02'0 0.0
2017-Mar-23 09:31S 28°48' E 032°02'0 0.0
2017-Mar-23 08:31S 28°48' E 032°02'0 0.0
2017-Mar-23 07:31S 28°48' E 032°02'0 0.0
2017-Mar-23 06:32S 28°48' E 032°02'0 0.0
2017-Mar-23 05:31S 28°48' E 032°02'0 0.0
2017-Mar-23 04:31S 28°48' E 032°02'0 0.0
2017-Mar-23 03:31S 28°48' E 032°02'0 0.0
2017-Mar-23 02:32S 28°48' E 032°02'0 0.0
2017-Mar-23 01:31S 28°48' E 032°02'0 0.0
2017-Mar-23 00:31S 28°48' E 032°02'0 0.0
2017-Mar-22 23:31S 28°48' E 032°02'0 0.0
2017-Mar-22 22:31S 28°48' E 032°02'0 0.0
2017-Mar-22 21:31S 28°48' E 032°02'0 0.0
2017-Mar-22 20:31S 28°48' E 032°02'0 0.0
2017-Mar-22 19:31S 28°48' E 032°02'0 0.0
2017-Mar-22 18:31S 28°48' E 032°02'0 0.0
2017-Mar-22 17:31S 28°48' E 032°02'0 0.0
2017-Mar-22 16:32S 28°48' E 032°02'0 0.0
2017-Mar-22 15:31S 28°48' E 032°02'0 0.0
2017-Mar-22 14:31S 28°48' E 032°02'0 0.0
2017-Mar-22 13:31S 28°48' E 032°02'0 0.0
2017-Mar-22 12:31S 28°48' E 032°02'0 0.0
2017-Mar-22 11:31S 28°48' E 032°02'0 0.0
2017-Mar-22 10:31S 28°48' E 032°02'0 0.0
2017-Mar-22 09:31S 28°48' E 032°02'0 0.0
2017-Mar-22 08:31S 28°48' E 032°02'0 0.0
2017-Mar-22 07:31S 28°48' E 032°02'0 0.0
2017-Mar-22 06:28S 28°48' E 032°02'0 0.0
2017-Mar-22 05:31S 28°48' E 032°02'0 0.0
2017-Mar-22 04:31S 28°48' E 032°02'0 0.0
2017-Mar-22 03:31S 28°48' E 032°02'0 0.0
2017-Mar-22 02:31S 28°48' E 032°02'0 0.0
2017-Mar-22 01:31S 28°48' E 032°02'0 0.0
2017-Mar-22 00:31S 28°48' E 032°02'0 0.0
2017-Mar-21 23:31S 28°48' E 032°02'0 0.0
2017-Mar-21 22:31S 28°48' E 032°02'0 0.0
2017-Mar-21 21:31S 28°48' E 032°02'0 0.0
2017-Mar-21 20:31S 28°48' E 032°02'0 0.0
2017-Mar-21 19:31S 28°48' E 032°02'0 0.0
2017-Mar-21 18:31S 28°48' E 032°02'0 0.0
2017-Mar-21 17:31S 28°48' E 032°02'0 0.0
2017-Mar-21 16:31S 28°48' E 032°02'0 0.0
2017-Mar-21 15:32S 28°48' E 032°02'0 0.0
2017-Mar-21 14:31S 28°48' E 032°02'0 0.0
2017-Mar-21 13:31S 28°48' E 032°02'0 0.0
2017-Mar-21 12:31S 28°48' E 032°02'0 0.0
2017-Mar-21 11:31S 28°48' E 032°02'0 0.0
2017-Mar-21 10:31S 28°48' E 032°02'0 0.0
2017-Mar-21 09:31S 28°48' E 032°02'0 0.0
2017-Mar-21 08:31S 28°48' E 032°02'0 0.0
2017-Mar-21 07:31S 28°48' E 032°02'0 0.0
2017-Mar-21 06:31S 28°48' E 032°02'0 0.0
2017-Mar-21 05:31S 28°48' E 032°02'0 0.0
2017-Mar-21 04:25S 28°48' E 032°02'0 0.0
2017-Mar-21 03:31S 28°48' E 032°02'0 0.0
2017-Mar-21 02:31S 28°48' E 032°02'0 0.0
2017-Mar-21 01:31S 28°48' E 032°02'0 0.0
2017-Mar-21 00:31S 28°48' E 032°02'0 0.0
2017-Mar-20 23:31S 28°48' E 032°02'0 0.0
2017-Mar-20 22:31S 28°48' E 032°02'0 0.0
2017-Mar-20 21:31S 28°48' E 032°02'1 0.9
2017-Mar-20 20:33S 28°48' E 032°03'6 5.8
2017-Mar-20 19:33S 28°50' E 032°09'5 4.4
2017-Mar-20 18:31S 28°53' E 032°13'0 0.0
2017-Mar-20 17:31S 28°53' E 032°13'0 0.0
2017-Mar-20 16:31S 28°53' E 032°13'0 0.0
2017-Mar-20 15:31S 28°53' E 032°13'0 0.1
2017-Mar-20 14:31S 28°53' E 032°13'0 0.1
2017-Mar-20 13:34S 28°53' E 032°13'  

Dump ship's entire track history